This demonstration page uses our WeatherBlox Daily Observations layout. Learn more.

Left ArrowRight Arrow

Hourly Observations for January 13, 2015

Temp ( °F °C ) Dew Point ( °F °C ) Humidity (%) Winds ( mph kmh ) Pressure ( in mb ) Visibility ( mi km ) Precip ( " mm )
12:51 am 00:51 Mostly Cloudy 50 10 42 5.6 74 74 SSE 7 11 30.05 1018 10 16 0.00 0.00
1:51 am 01:51 Partly Cloudy 48 8.9 41 5 77 77 ESE 6 9 30.04 1017 10 16 0.00 0.00
2:51 am 02:51 Cloudy 49 9.4 41 5 74 74 SSE 8 13 30.05 1018 10 16 0.00 0.00
3:51 am 03:51 Cloudy with Light Rain 47 8.3 41 5 80 80 SE 6 9 30.04 1017 10 16 0.00 0.03
4:51 am 04:51 Mostly Cloudy 47 8.3 39 3.9 74 74 SE 8 13 30.04 1017 10 16 0.00 0.03
5:51 am 05:51 Mostly Clear 45 7.2 37 2.8 74 74 SE 9 15 30.05 1018 10 16 0.00 0.00
6:51 am 06:51 Clear 43 6.1 36 2.2 76 76 SSE 9 15 30.06 1018 10 16 0.00 0.00
7:51 am 07:51 Sunny 42 5.6 35 1.7 76 76 SSE 9 15 30.07 1018 10 16 0.00 0.00
8:51 am 08:51 Sunny 43 6.1 35 1.7 74 74 SE 9 15 30.09 1019 10 16 0.00 0.00
9:51 am 09:51 Sunny 48 8.9 36 2.2 63 63 SSE 10 17 30.07 1018 10 16 0.00 0.00
10:51 am 10:51 Sunny 50 10 36 2.2 59 59 SSE 8 13 30.08 1019 10 16 0.00 0.00
11:51 am 11:51 Sunny 53 11.7 36 2.2 52 52 ESE 9 15 30.03 1017 10 16 0.00 0.00
12:51 pm 12:51 Sunny 56 13.3 36 2.2 47 47 E 15 24 29.97 1015 10 16 0.00 0.00
1:51 pm 13:51 Sunny 58 14.4 36 2.2 44 44 SE 13 20 29.93 1014 10 16 0.00 0.00
2:51 pm 14:51 Partly Cloudy 59 15 36 2.2 42 42 E 9 15 29.91 1013 10 16 0.00 0.00
3:51 pm 15:51 Mostly Sunny 57 13.9 36 2.2 45 45 ESE 12 19 29.91 1013 10 16 0.00 0.00
4:51 pm 16:51 Cloudy 57 13.9 36 2.2 45 45 E 9 15 29.92 1013 10 16 0.00 0.00
5:51 pm 17:51 Cloudy 54 12.2 36 2.2 51 51 SE 9 15 29.96 1014 10 16 0.00 0.00
6:51 pm 18:51 Cloudy with Light Rain 49 9.4 45 7.2 86 86 W 15 24 30.01 1016 10 16 0.00 0.03
7:06 pm 19:06 Cloudy with Light Rain 48 8.9 46 7.8 93 93 W 15 24 30.06 1018 7 11 0.00 0.03
7:51 pm 19:51 Cloudy with Light Rain 48 8.9 46 7.8 93 93 WNW 10 17 30.02 1017 8 13 0.02 0.51
7:58 pm 19:58 Cloudy 48 8.9 47 8.3 96 96 WNW 9 15 30.06 1018 7 11 0.00 0.03
8:51 pm 20:51 Cloudy with Light Rain 47 8.3 46 7.8 97 97 W 8 13 30.03 1017 6 10 0.00 0.03
8:58 pm 20:58 Cloudy with Light Rain 47 8.3 46 7.8 97 97 WSW 8 13 30.06 1018 6 10 0.01 0.25
9:51 pm 21:51 Cloudy with Rain 47 8.3 44 6.7 90 90 WNW 3 6 30.04 1017 3 5 0.10 2.54
10:51 pm 22:51 Cloudy with Rain 46 7.8 44 6.7 93 93 E 5 7 30.05 1018 6 10 0.09 2.29
11:51 pm 23:51 Cloudy with Heavy Rain 46 7.8 43 6.1 89 89 E 10 17 30.03 1017 4 6 0.08 2.03

Powered by AerisWeather